TimeCST,TemperatureF,Dew PointF,Humidity,Sea Level PressureIn,VisibilityMPH,Wind Direction,Wind SpeedMPH,Gust SpeedMPH,PrecipitationIn,Events,Conditions,WindDirDegrees,DateUTC
12:52 AM,24.1,21.0,88,30.03,4.0,NE,8.1,-,N/A,,Overcast,50,2013-02-26 06:52:00
1:47 AM,23.0,21.2,93,29.97,3.0,NNE,10.4,-,N/A,,Overcast,20,2013-02-26 07:47:00
1:52 AM,23.0,21.0,92,30.03,3.0,NNE,10.4,-,N/A,,Overcast,20,2013-02-26 07:52:00
2:30 AM,21.2,19.4,93,29.96,2.0,NNE,13.8,-,N/A,,Overcast,20,2013-02-26 08:30:00
2:49 AM,21.2,19.4,93,29.96,3.0,NNE,9.2,-,N/A,,Overcast,20,2013-02-26 08:49:00
2:52 AM,21.0,19.9,96,30.01,3.0,North,9.2,-,N/A,,Overcast,10,2013-02-26 08:52:00
3:52 AM,21.0,19.0,92,29.98,3.0,North,12.7,-,N/A,,Overcast,360,2013-02-26 09:52:00
3:59 AM,21.2,19.4,93,29.92,2.5,North,12.7,-,N/A,,Overcast,360,2013-02-26 09:59:00
4:16 AM,21.2,19.4,93,29.91,1.2,North,10.4,-,N/A,,Overcast,350,2013-02-26 10:16:00
4:23 AM,21.2,19.4,93,29.91,0.8,North,10.4,-,N/A,,Overcast,350,2013-02-26 10:23:00
4:52 AM,21.9,19.9,92,29.95,0.5,North,13.8,-,N/A,Fog,Light Freezing Fog,360,2013-02-26 10:52:00
5:52 AM,21.9,19.9,92,29.98,0.8,NNE,11.5,-,N/A,,Mist,20,2013-02-26 11:52:00
5:57 AM,21.2,19.4,93,29.92,1.2,NNE,12.7,-,N/A,,Overcast,20,2013-02-26 11:57:00
6:18 AM,21.2,19.4,93,29.91,2.0,NNE,13.8,-,N/A,,Overcast,20,2013-02-26 12:18:00
6:52 AM,21.0,19.0,92,29.96,2.5,North,12.7,-,N/A,,Overcast,10,2013-02-26 12:52:00
7:11 AM,19.4,17.6,93,29.90,1.5,North,12.7,-,N/A,,Overcast,10,2013-02-26 13:11:00
7:52 AM,19.0,17.1,92,29.96,2.5,North,15.0,-,N/A,,Partly Cloudy,10,2013-02-26 13:52:00
8:18 AM,19.4,17.6,93,29.90,1.8,North,12.7,-,N/A,,Mostly Cloudy,10,2013-02-26 14:18:00
8:52 AM,19.9,18.0,92,29.96,1.5,NNE,13.8,-,N/A,,Mostly Cloudy,20,2013-02-26 14:52:00
9:04 AM,19.4,17.6,93,29.90,1.8,North,13.8,-,N/A,,Mostly Cloudy,10,2013-02-26 15:04:00
9:52 AM,21.9,19.0,89,29.96,2.0,North,15.0,-,N/A,,Mostly Cloudy,10,2013-02-26 15:52:00
10:04 AM,21.2,19.4,93,29.91,2.0,North,15.0,-,N/A,,Scattered Clouds,10,2013-02-26 16:04:00
10:52 AM,24.1,19.9,84,29.96,2.5,North,15.0,-,N/A,,Partly Cloudy,360,2013-02-26 16:52:00
11:52 AM,26.1,21.0,81,29.94,2.5,North,15.0,-,N/A,,Haze,10,2013-02-26 17:52:00
12:52 PM,26.1,21.9,84,29.91,3.0,North,17.3,-,N/A,,Clear,360,2013-02-26 18:52:00
2:52 PM,26.1,21.9,84,29.88,3.0,North,18.4,-,N/A,,Clear,360,2013-02-26 20:52:00
3:52 PM,26.1,21.9,84,29.88,3.0,North,19.6,-,N/A,,Clear,360,2013-02-26 21:52:00
4:52 PM,26.1,21.9,84,29.89,3.0,North,17.3,-,N/A,,Clear,360,2013-02-26 22:52:00
5:52 PM,25.0,21.9,88,29.91,3.0,North,16.1,-,N/A,,Clear,360,2013-02-26 23:52:00
6:26 PM,26.6,23.0,86,29.85,5.0,North,17.3,-,N/A,,Mostly Cloudy,350,2013-02-27 00:26:00
6:52 PM,27.0,23.0,85,29.91,5.0,North,16.1,-,N/A,,Overcast,350,2013-02-27 00:52:00
7:29 PM,26.6,23.0,86,29.85,5.0,North,17.3,-,N/A,,Scattered Clouds,350,2013-02-27 01:29:00
7:52 PM,26.1,23.0,88,29.91,5.0,North,15.0,-,N/A,,Clear,350,2013-02-27 01:52:00
8:52 PM,26.1,21.9,84,29.91,6.0,NNW,15.0,-,N/A,,Clear,340,2013-02-27 02:52:00
9:52 PM,24.1,19.9,84,29.92,6.0,NNW,15.0,-,N/A,,Clear,340,2013-02-27 03:52:00
10:52 PM,23.0,19.9,88,29.91,6.0,NNW,16.1,-,N/A,,Clear,340,2013-02-27 04:52:00
11:52 PM,21.9,18.0,85,29.91,5.0,NNW,18.4,-,N/A,,Clear,330,2013-02-27 05:52:00